Home > Weather > Aalborg > Past weeks

Flag for Denmark Weather for the Past 2 Weeks in Aalborg, Denmark

Now
50 °F

Broken clouds.


Feels Like: 43 °F
Forecast: 42 / 50 °F
Wind: 24 mph from Southeast

Location: Aalborg Airport

Current Time: Apr 29, 2016 at 2:33:48 PM

Latest Report: Apr 29, 2016 at 1:50 PM


Visibility: N/A

Pressure: 29.83 "Hg

Humidity: 58%

Dew Point: 36 °F

Location of AalborgLocation

Historic Weather in Aalborg — Graph

°F

Aalborg Temperature Yesterday

Maximum temperature yesterday: 45 °F (at 9:20 AM)
Minimum temperature yesterday: 39 °F (at 2:50 AM)
Average temperature yesterday: 42 °F

High & Low Weather Summary for the Past Weeks

 TemperatureHumidityPressure
High54 °F (Apr 14, 2:50 PM)100% (Apr 16, 5:50 AM)30.30 "Hg (Apr 16, 5:50 AM)
Low30 °F (Apr 24, 4:50 AM)32% (Apr 23, 12:20 PM)29.18 "Hg (Apr 17, 1:50 AM)
Average45 °F76%29.76 "Hg
* Reported Apr 14 1:20 PM — Apr 29 1:20 PM, Aalborg, Weather by CustomWeather, © 2016

Note: Actual official high and low records may vary slightly from our data, if they occured in-between our weather recording intervals... More about our weather records

Advertising

Aalborg Weather History for the Previous 24 Hours

Scroll right to see more
 ConditionsComfort  
Time TempWeatherWind HumidityBarometerVisibility
1:20 PM
Fri, Apr 29
50 °FBroken clouds.22 mph62%29.83 "HgN/A
12:50 PM50 °FBroken clouds.23 mph58%29.83 "HgN/A
12:20 PM50 °FPartly sunny.21 mph58%29.83 "HgN/A
11:50 AM50 °FScattered clouds.18 mph58%29.83 "HgN/A
11:20 AM48 °FScattered clouds.16 mph62%29.86 "HgN/A
10:50 AM46 °FScattered clouds.17 mph71%29.86 "HgN/A
10:20 AM45 °FScattered clouds.16 mph76%29.86 "HgN/A
9:50 AM45 °FScattered clouds.16 mph81%29.86 "HgN/A
9:20 AM45 °FPassing clouds.13 mph76%29.83 "HgN/A
8:50 AM43 °FPassing clouds.12 mph87%29.86 "HgN/A
8:20 AM43 °FPassing clouds.12 mph81%29.83 "HgN/A
7:20 AM39 °FPassing clouds.10 mph87%29.83 "HgN/A
6:50 AM37 °FPassing clouds.8 mph93%29.83 "HgN/A
6:20 AM37 °FPassing clouds.8 mph93%29.83 "HgN/A
5:50 AM37 °FPassing clouds.8 mph93%29.83 "HgN/A
5:20 AM37 °FPassing clouds.9 mph93%29.80 "HgN/A
3:20 AM39 °FPassing clouds.9 mph93%29.80 "HgN/A
2:50 AM39 °FPassing clouds.8 mph93%29.80 "HgN/A
2:20 AM41 °FPassing clouds.8 mph93%29.80 "HgN/A
1:50 AM41 °FPassing clouds.9 mph93%29.80 "HgN/A
1:20 AM41 °FPassing clouds.8 mph93%29.80 "HgN/A
12:50 AM41 °FPassing clouds.9 mph93%29.80 "HgN/A
12:20 AM41 °FPartly cloudy.8 mph93%29.80 "HgN/A
11:50 PM
Thu, Apr 28
43 °FPassing clouds.7 mph87%29.80 "HgN/A
11:20 PM43 °FPassing clouds.6 mph87%29.80 "HgN/A
10:50 PM43 °FPassing clouds.2 mph87%29.80 "HgN/A
10:20 PM41 °FPartly cloudy.5 mph87%29.80 "HgN/A
9:50 PM41 °FSprinkles. Broken clouds.2 mph93%29.83 "HgN/A
9:20 PM43 °FBroken clouds.1 mph87%29.83 "HgN/A
8:50 PM43 °FBroken clouds.1 mph87%29.83 "HgN/A
8:20 PM43 °FBroken clouds.2 mph87%29.83 "Hg6 mi
7:50 PM43 °FPartly sunny.1 mph87%29.83 "Hg5 mi
7:20 PM43 °FPartly sunny.3 mph87%29.83 "Hg5 mi
6:50 PM43 °FSprinkles. Partly sunny.8 mph87%29.83 "Hg4 mi
6:20 PM45 °FScattered clouds.7 mph87%29.80 "HgN/A
5:50 PM43 °FPartly sunny.7 mph87%29.80 "HgN/A
5:20 PM45 °FSprinkles. Partly sunny.2 mph81%29.80 "HgN/A
4:20 PM43 °FSprinkles. Scattered clouds.6 mph87%29.80 "HgN/A
3:50 PM45 °FScattered clouds.5 mph87%29.80 "HgN/A
3:20 PM45 °FPartly sunny.3 mph87%29.80 "HgN/A
2:20 PM41 °FScattered clouds.8 mph87%29.80 "HgN/A
Weather by CustomWeather, © 2016

See weather overviewHow to use our weather pages